{"data":{"norad_id":28054,"epoch":"2026-09-19T22:47:01.204800Z","epoch_age_seconds":62031,"freshness":"FRESH","line1":"1 28054U 03048A   26262.94931950  .00000018  00000+0  33291-4 0  9992","line2":"2 28054  98.9861 287.3905 0006163 233.5625 177.3354 14.14491236182880","mean_motion":14.14491236,"eccentricity":0.0006163,"inclination_deg":98.9861,"raan_deg":287.3905,"arg_perigee_deg":233.5625,"mean_anomaly_deg":177.3354,"bstar":3.3291e-5,"rev_number":18288,"period_min":101.80338791438,"perigee_km":839.59239867569,"apogee_km":848.49445827183,"semimajor_km":7222.1804284738,"source":"CELESTRAK","updated_at":"2026-09-20T09:00:33.212445Z"}}